Location: Lake Arresoe
(56.0000°N, 12.5000°E)
Time: 10:13:20
(UTC+02:00)

Resurs 1-4 Rocket - Pass Details

Date: 18 August 2020
Orbit: 799 x 815 km, 98.6° (Epoch: 23 September)

Event Time Altitude Azimuth Distance (km) Brightness Sun altitude
Rises 03:56:24 0° 14° (NNE) 3,332 6.5 -13.1°
Reaches altitude 10° 03:58:49 10° 8° (N) 2,395 5.5 -12.9°
Maximum altitude 04:03:50 45° 297° (WNW) 1,083 2.7 -12.4°
Enters shadow 04:07:40 16° 231° (SW) 1,961 3.5 -12.1°
